Regional Weather Roundup
Issued by NWS Wakefield, VA

Home | Current Version | Previous Version | Text Only | Print | Product List | Glossary Off
Versions: 1 2 3 4 5 6 7 8 9 10 11 12 13 14 15 16 17 18 19 20 21 22 23 24 25 26 27 28 29 30 31 32 33 34 35 36 37 38 39 40 41 42 43 44 45 46 47 48 49 50

000
ASUS41 KAKQ 202110
RWRAKQ

REGIONAL WEATHER ROUNDUP
NATIONAL WEATHER SERVICE WAKEFIELD VA
500 PM EDT MON OCT 20 2014

Note: "fair" indicates few or no clouds below 12,000 feet with no
significant weather and/or obstructions to visibility. * = Denotes
station may not report precipitation (e.g., rain,snow,etc.),
thunder or fog.

VAZ042-051-052>054-056-202200-
NORTHERN VIRGINIA

CITY           SKY/WX    TMP DP  RH WIND       PRES   REMARKS
WASH NATIONAL  PTSUNNY   68  45  43 S13       29.95F
DULLES         PTSUNNY   63  45  51 SW8       29.94S
FORT BELVOIR   PTSUNNY   66  47  51 VRB5      29.95F
QUANTICO       PTSUNNY   67  46  47 SW14G22   29.95F
FREDERICKSBRG* MOSUNNY   68  46  45 S9        29.94F
STAFFORD*      MOSUNNY   65  44  45 S7        29.99S
WARRENTON      MOSUNNY   66  53  61 S9G16     29.93F
CULPEPER*      PTSUNNY   66  48  52 S6        29.95S
MANASSAS*      SUNNY     66  48  52 S9        29.94F
LEESBURG*      PTSUNNY   64  50  59 SW3       29.95S
WINCHESTER     CLOUDY    63  36  36 E3        29.94S
FRONT ROYAL*   MOCLDY    63  45  51 CALM      29.92S
LURAY*         MOCLDY    66  43  42 SW5       29.92F
$$

VAZ048-049-060>072-079>083-202200-
CENTRAL AND SOUTH CENTRAL VIRGINIA...AND NORTH CENTRAL NORTH CAROLINA

CITY           SKY/WX    TMP DP  RH WIND       PRES   REMARKS
RICHMOND       PTSUNNY   67  41  38 S10       29.98F
CHESTERFIELD*  CLEAR    N/A N/A N/A S10       29.99F
PETERSBURG*    SUNNY     65  38  35 S3        29.99F
HANOVER        MOSUNNY   66  44  45 VRB7      29.99S
TAPPAHANNOCK*  MOSUNNY   67  34  29 S7        29.98F
CHARLOTTSVILLE PTSUNNY   66  47  50 S12       29.93F
ORANGE*        CLOUDY    68  50  52 S8        29.95F
LOUISA*        PTSUNNY   66  48  52 S5        29.94S
FARMVILLE*     SUNNY     68  45  42 S10       29.95S
CREWE*         CLEAR     66  43  44 S6        29.97F
FORT PICKETT*  CLEAR     65  44  45 SW7       29.99S
LUNENBURG*     CLEAR     65  48  52 S7        29.98F
SOUTH HILL*    SUNNY     68  45  42 S7        30.04F
LAWRENCEVILLE* CLEAR     66  45  47 SW7       29.99S
ROANOKE RAPIDS CLEAR     66  43  42 SW12      30.00S
RALEIGH        MOSUNNY   70  45  40 SW13      29.99F
$$

VAZ088>098-202200-
SOUTHEAST VIRGINIA

CITY           SKY/WX    TMP DP  RH WIND       PRES   REMARKS
NORFOLK        SUNNY     68  38  33 S10       30.00F
VIRGINIA BEACH PTSUNNY   70  40  33 S10       30.00F
NORFOLK NAVAL  MOSUNNY   69  43  38 SW7       30.01F
WEST POINT*    SUNNY     68  37  32 S7        30.00F
NEWPORT NEWS   SUNNY     69  43  38 S8        30.00F
LANGLEY AFB    SUNNY     67  43  41 S8        30.00F
FORT EUSTIS    SUNNY     67  45  45 S6        29.98F
WILLIAMSBURG*  SUNNY     70  45  40 S6        30.00F
HR EXEC AP*    CLEAR     66  45  45 S7        30.02F
FRANKLIN*      SUNNY     68  46  45 S6        29.99F
WAKEFIELD      SUNNY     67  44  43 S6        29.99F
$$

VAZ020-022-025-037-045-202200-
WEST CENTRAL AND SOUTHWEST VIRGINIA

CITY           SKY/WX    TMP DP  RH WIND       PRES   REMARKS
STAUNTON*      PTSUNNY   65  40  39 S9        29.95S
HOT SPRINGS VA CLOUDY    54  37  53 W9        29.96S
LYNCHBURG      MOSUNNY   64  46  52 S12       29.96F
DANVILLE       SUNNY     69  46  43 S6        29.97F
SOUTH BOSTON*  NOT AVBL
MARTINSVILLE   MOSUNNY   67  48  49 S5        29.99F
ROANOKE        PTSUNNY   67  47  48 CALM      29.96F
BLACKSBURG     PTSUNNY   64  43  45 W6        29.99S
DUBLIN*        PTSUNNY   62  42  47 W9        29.99S
MARION*        CLOUDY    59  45  59 W12G18    30.02F
HILLSVILLE*    CLOUDY    61  47  60 CALM      29.99S
RICHLANDS*     CLOUDY    59  45  58 SW8       30.01S
WISE*          LGT RAIN  54  45  71 S7        30.00F
ABINGDON*      CLOUDY    61  47  60 W5        30.01F
$$

MDZ021>025-VAZ099-100-202200-
SOUTHERN MARYLAND AND THE DELMARVA PENINSULA

CITY           SKY/WX    TMP DP  RH WIND       PRES   REMARKS
PATUXENT RIVER PTSUNNY   64  39  39 S10G17    29.97F
BAY BRIDGE APT   N/A     63  43  48 S10G17    29.97S
LEONARDTOWN    SUNNY     64  39  39 S12       29.99S
DOVER          MOSUNNY   63  43  47 S10       29.96F
GEORGETOWN     SUNNY     65  36  34 SW14G22   29.99F
EASTON         PTSUNNY   64  45  48 S10G18    30.01F
CAMBRIDGE      NOT AVBL
SALISBURY      SUNNY     66  43  43 S10       29.99F
OCEAN CITY     SUNNY     62  44  51 SW14G20   30.01F
WALLOPS ISLAND SUNNY     63  43  48 SW14      30.02F
ACCOMACK*      SUNNY     63  43  48 S9        30.01F
$$

NCZ012>017-030>032-202200-
EASTERN NORTH CAROLINA

CITY           SKY/WX    TMP DP  RH WIND       PRES   REMARKS
ELIZABETH CITY SUNNY     70  46  42 S9        30.01F
AHOSKIE*       SUNNY     67  47  49 S5        30.00F
EDENTON*       SUNNY     70  51  50 SW9       30.01F
CURRITUCK*     SUNNY     69  41  35 S8        30.02F
KILL DEVIL HLS SUNNY     67  52  57 S7        30.02F
MANTEO         SUNNY     66  53  62 S9        30.04F
CAPE HATTERAS  SUNNY     69  54  58 SE6       30.04F
TARBORO*       CLEAR     71  50  46 S8        30.01S
GOLDSBORO      SUNNY     73  55  52 S5        29.98F
WASHINGTON     SUNNY     70  50  48 S7        30.01F
GREENVILLE     SUNNY     72  50  46 S10       30.02F
NEW BERN       SUNNY     72  54  53 S13       30.03F
WILMINGTON     MOSUNNY   72  56  57 SE8       30.01F
$$

VAZ048-202200-
ELSEWHERE

CITY           SKY/WX    TMP DP  RH WIND       PRES   REMARKS
HARRISBURG PA  CLOUDY    61  41  47 SW8       29.93S
BALTIMORE      PTSUNNY   65  44  46 VRB3      29.94F
ANNAPOLIS      MOSUNNY   63  45  51 S9        29.95F
ANDREWS AFB    MOSUNNY   65  46  50 S12       29.94F
WILMINGTON DE  PTSUNNY   62  41  46 SW7       29.98F
PHILADELPHIA   PTSUNNY   62  40  44 S6        29.98F
WILDWOOD NJ*   MOSUNNY   63  43  48 S15G23    30.00F
ATLANTIC CITY  MOSUNNY   62  44  51 S10       29.99F
HENDERSON NC   SUNNY     66  42  40 S7        29.99F
GREENSBORO     PTSUNNY   67  46  47 SW8       29.97F
ROCKY MOUNT    SUNNY     70  47  43 S6        30.00F
FAYETTEVILLE   MOSUNNY   73  49  42 S10       29.98F
CHARLOTTE      MOSUNNY   68  46  45 S9        30.00S
$$

VAZ100-202200-
MARINE

STATION/POSITION TIME  TEMP    WIND        PRES    WAVE   SWELL
                       AIR SEA DIR/SP/G            HT/PER HT/PER
                 (UTC) (F)     (DEG/KT/KT) (MB)    (FT/S) (FT/S)
44066 TX TWR #4  2100   60 66  220/ 14/ 17 1016.8F   2/ 4   2/10
CAPE MAY NJ      2100   63 67  190/ 13/ 20 1015.0S
LEWES DE         2100   64 61  210/  8/ 13 1015.1F
15NM E FENWICK I 2100   63 66  200/ 17/ 21 1015.7F   4/ 4   2/11
OCEAN-CITY-INLET 2100   63 65  210/ 20/ 22 1015.6F
WACHAPREAGUE VA  2100   64 62  190/ 11/ 14 1016.3F
THOMAS POINT MD  2100   63 64  170/ 18/ 19 1015.3F
GOOSES REEF MD   2100   65     210/ 14/ 17 1015.1F
COVE POINT MD    2100   63     200/ 16/ 18 1014.7F
SOLOMONS ISLAND  2100      67                N/A
BISHOPS HEAD MD  2100   62 60  180/ 15/ 21 1014.8F
PINEY POINT MD   2100          210/ 12/ 13   N/A
POTOMAC MD       2100   65     220/ 14/ 16 1014.6S
CAMBRIDGE MD     2100   63 63  170/  8/ 13 1014.9F
LEWISETTA VA     2100   64 62  200/ 11/ 13 1014.7S
RAPPAHANNOCK LGT 2100          180/ 10/ 10 1016.4F
STINGRAY PT      2100   65     210/ 12/ 14 1016.3F
YORK RVR RNG VA  2100   66     210/ 11/ 13 1015.3F
YORKTOWN VA      2100   66 67  190/  4/  7 1015.4F
JAMESTOWN VA     2100   69     220/  8/ 12   N/A
DOMINION TERM VA 2100   66     210/  8/ 10 1015.8F
KIPTOPEKE VA     2100      69  210/ 13/ 14   N/A
CHES BAY BRIDGE  2100   67 68  190/ 13/ 16 1015.4F
CHESAPEAKE LGHT  2000   64     190/ 17/ 18 1017.1F
WILLOUBY STN VA  2100   67     190/ 13/ 15 1014.5F
S CRANEY ISL VA  2100          190/ 10/ 13 1015.6F
CAPE HENRY BUOY  2100      69                N/A     3/13   2/13
1ST LANDING BUOY 2100   67     220/ 12/ 16 1015.8F
CAPE CHARLES BUO 2100      69                N/A     3/ 4   2/12
64NM E OF VA BCH 2100   67 69  190/ 14/ 16 1016.8F   2/13   2/13
DUCK PIER NC     2100   67 68  190/ 11/ 14 1015.8F
44100 DUCK FRF   2100      71                N/A     3/12   2/12
44056 DUCK FRF   2100                        N/A     2/13   2/13
OREGON INLET NC  2100   66 68  150/  6/  8 1017.3F
HATTERAS NC      2100   68 69  150/  5/  7 1017.7F
DIAMOND SHLS NC  2100   72     180/ 12/ 17 1017.4F   3/ 8   3/ 8
CAPE LOOKOUT NC  2000   68     130/  5/  6 1017.4F
$$


USA.gov is the U.S. government's official web portal to all federal, state and local government web resources and services.